Queretaro Airport, México

4:41 PM CST en Noviembre 16, 2018 (GMT -0600)
Queretaro Airport

Tiempo Historia de MMQT - Noviembre, 2018

Change the Weather History Date:

Viernes, Noviembre 9, 2018

  Actual Average Record
Temperature  
Temperatura media 70 ° F -  
Temperatura máxima 84 ° F 71 ° F 84 ° F (2018)
Temperatura mínima 55 ° F 46 ° F 28 ° F (2010)
Cooling Degree Days 4    
Growing Degree Days 20 (Base 50)    
Moisture  
Punto de rocío 50 ° F    
Average Humidity 57    
Maximum Humidity 100    
Minimum Humidity 25    
Precipitación  
Precipitación 0.00 pul - - ()
Presión al nivel del mar  
Presión al nivel del mar 30.14 pul    
Viento  
Velocidad del viento 4 mph ()    
Velocidad máxima del viento 21 mph    
Max Gust Speed -    
Visibilidad 8.9 Millas    
Eventos      
Averages and records for this station are not official NWS values.
T = Trace of Precipitation, MM = Missing Value Source: Averaged Metar Reports

Daily Weather History Graph

Daily Weather History Graph

Search for Another Location

Airport or City:

Astronomía

Nov. 09, 2018 Salida Puesta
Hora real 6:47 AM CST 6:01 PM CST
Crepúsculo civil 6:24 AM CST 6:24 PM CST
Crepúsculo náutico 5:57 AM CST 6:51 PM CST
Crepúsculo astronómico 5:31 AM CST 7:17 PM CST
Luna 8:33 AM CST (11/9) 7:56 PM CST (11/9)
Horas de luz 12h 00m
Horas de luz
11h 14m
Creciente, 5% of the Moon is Illuminated
Nov 9
Creciente
Nov 15
Cuarto creciente
Nov 22
Luna llena
Nov 29
Cuarto menguante
Dic 7
Nueva

Hourly Weather History & Observations

Hora (CST) Temp. Vientos helados Punto de rocío Humedad Presión Visibilidad Wind Dir Velocidad del viento Velocidad de ráfagas Precip Eventos Condiciones
2:45 AM 63 ° F - 54 ° F 66% 29.75 pul 6 mi Oeste 2.2 mph - -  
5:46 AM 48.2 ° F - 46.4 ° F 93% 30.27 pul 6.0 mi Este 4.6 mph - N/A   Nubes dispersas
6:45 AM 46.4 ° F 44.3 ° F 46.4 ° F 100% 30.29 pul 4.0 mi Sur 4.6 mph - N/A   Nubes dispersas
7:47 AM 51.8 ° F - 50.0 ° F 94% 30.30 pul 4.0 mi Sin viento Sin viento - N/A   Nubes dispersas
8:45 AM 57.2 ° F - 50.0 ° F 77% 30.32 pul 6.0 mi ESE 3.5 mph - N/A   Parcialmente nublado
8:50 AM 62 ° F - 53 ° F 63% 29.87 pul 12 mi Oeste 2.2 mph - -  
9:43 AM 64.4 ° F - 51.8 ° F 64% 30.32 pul 9.0 mi NE 2.3 mph - N/A   Despejado
10:40 AM 69.8 ° F - 50.0 ° F 49% 30.31 pul 9.0 mi Norte 3.5 mph - N/A   Parcialmente nublado
11:50 AM 76 ° F - 57 ° F 41% 29.83 pul 12 mi Norte 2.2 mph - -  
12:46 PM 75.2 ° F - 48.2 ° F 38% 30.26 pul 12.0 mi ENE 5.8 mph - N/A   Nubes dispersas
1:49 PM 78.8 ° F - 46.4 ° F 32% 30.21 pul 14.0 mi Sur 4.6 mph - N/A   Nubes dispersas
2:45 PM 84 ° F - 54 ° F 25% 29.70 pul 12 mi Este 2.2 mph - -   Nubes dispersas
2:52 PM 78.8 ° F - 46.4 ° F 32% 30.19 pul 10.0 mi SSE 5.8 mph - N/A   Nubes dispersas
3:53 PM 78.8 ° F - 42.8 ° F 28% 30.18 pul 10.0 mi ENE 5.8 mph - N/A   Nubes dispersas
4:47 PM 77.0 ° F - 44.6 ° F 32% 30.19 pul 10.0 mi ENE 13.8 mph - N/A   Nubes dispersas
5:50 PM 71.6 ° F - 48.2 ° F 43% 30.21 pul 8.0 mi ENE 15.0 mph - N/A   Nubes dispersas
7:52 PM 62.6 ° F - 51.8 ° F 68% 30.29 pul 7.0 mi Este 20.7 mph - N/A   Parcialmente nublado
8:48 PM 65 ° F - 54 ° F 60% 29.69 pul 12 mi NE 11.2 mph - -   Nubes dispersas
8:49 PM 60.8 ° F - 50.0 ° F 68% 30.33 pul 7.0 mi SE 9.2 mph - N/A   Nubes dispersas
9:47 PM 57.2 ° F - 50.0 ° F 77% 30.35 pul 7.0 mi Este 8.1 mph - N/A   Nubes dispersas